Location: Newark
(42.8481°N, 0.4872°E)
Time: 16:50:59
(UTC+00:00)

Vanguard 1 - Pass Details

Date: 05 November 2020
Orbit: 650 x 3833 km, 34.2° (Epoch: 28 November)

Event Time Altitude Azimuth Distance (km) Brightness Sun altitude
Rises 11:57:32 0° 250° (WSW) 6,722 14.6 31.1°
Reaches altitude 10° 12:01:29 10° 248° (WSW) 6,022 14.5 31.1°
Maximum altitude 12:22:10 67° 172° (S) 4,027 14.2 30.5°
Drops below altitude 10° 12:44:15 10° 96° (E) 6,371 14.2 29.5°
Sets 12:48:34 0° 94° (E) 7,109 14.3 29.3°
